Location: Clair
(33.8067°N, 117.9845°W)
Time: 08:24:57
(UTC+00:00)

NOSS 3-1 (A) - Pass Details

Date: 14 February 2026
Orbit: 613 x 1593 km, 63.4° (Epoch: 10 January)

Event Time Altitude Azimuth Distance (km) Brightness Sun altitude
Exits shadow 12:42:45 19° 182° (S) 1,505 4.5 -24.4°
Maximum altitude 12:45:40 47° 115° (ESE) 858 3.6 -23.7°
Drops below altitude 10° 12:50:23 10° 42° (NE) 2,224 5.9 -22.8°
Sets 12:53:01 0° 37° (NE) 3,272 6.8 -22.2°
